TimeEDT,TemperatureF,Dew PointF,Humidity,Sea Level PressureIn,VisibilityMPH,Wind Direction,Wind SpeedMPH,Gust SpeedMPH,PrecipitationIn,Events,Conditions,WindDirDegrees,DateUTC
12:17 AM,73.4,69.8,88,29.96,4.0,East,9.2,-,0.05,Rain-Thunderstorm,Thunderstorms and Rain,80,2012-10-07 04:17:00
12:46 AM,75.2,69.8,83,29.93,10.0,ESE,8.1,-,0.09,Rain,Light Rain,120,2012-10-07 04:46:00
12:53 AM,75.0,70.0,84,29.92,10.0,SE,6.9,-,0.09,Rain,Light Rain,130,2012-10-07 04:53:00
1:53 AM,77.0,73.0,88,29.90,10.0,SSE,10.4,-,0.00,,Mostly Cloudy,150,2012-10-07 05:53:00
2:53 AM,75.9,73.0,91,29.89,10.0,NNW,5.8,-,N/A,,Mostly Cloudy,330,2012-10-07 06:53:00
3:53 AM,75.9,73.0,91,29.89,10.0,NW,4.6,-,N/A,,Mostly Cloudy,320,2012-10-07 07:53:00
4:53 AM,75.9,73.0,91,29.89,10.0,NNW,4.6,-,N/A,,Mostly Cloudy,340,2012-10-07 08:53:00
5:53 AM,75.9,73.0,91,29.91,10.0,Calm,Calm,-,N/A,,Scattered Clouds,0,2012-10-07 09:53:00
6:53 AM,75.0,73.0,94,29.92,10.0,Calm,Calm,-,N/A,,Scattered Clouds,0,2012-10-07 10:53:00
7:53 AM,75.9,73.9,94,29.92,10.0,Calm,Calm,-,N/A,,Mostly Cloudy,0,2012-10-07 11:53:00
8:53 AM,81.0,75.0,82,29.94,10.0,North,3.5,-,N/A,,Mostly Cloudy,10,2012-10-07 12:53:00
9:53 AM,82.9,75.9,79,29.96,10.0,NE,9.2,-,N/A,,Mostly Cloudy,40,2012-10-07 13:53:00
10:34 AM,84.2,75.2,74,29.96,10.0,NNE,8.1,-,N/A,,Mostly Cloudy,30,2012-10-07 14:34:00
10:53 AM,82.9,75.0,77,29.97,7.0,NE,6.9,-,0.00,Rain,Light Rain,40,2012-10-07 14:53:00
11:53 AM,82.9,73.9,74,29.97,7.0,ESE,11.5,-,0.00,,Mostly Cloudy,120,2012-10-07 15:53:00
12:53 PM,82.0,73.0,74,29.96,10.0,ENE,9.2,-,N/A,,Mostly Cloudy,70,2012-10-07 16:53:00
1:53 PM,82.9,73.0,72,29.95,10.0,East,11.5,-,N/A,,Mostly Cloudy,90,2012-10-07 17:53:00
2:53 PM,82.9,73.9,74,29.92,10.0,East,6.9,-,N/A,,Mostly Cloudy,90,2012-10-07 18:53:00
3:31 PM,84.2,71.6,66,29.91,10.0,ENE,5.8,-,N/A,,Mostly Cloudy,60,2012-10-07 19:31:00
3:53 PM,84.0,72.0,67,29.91,10.0,ENE,4.6,-,0.00,Rain,Light Rain,60,2012-10-07 19:53:00
4:53 PM,84.0,72.0,67,29.92,10.0,ENE,8.1,-,0.00,,Mostly Cloudy,70,2012-10-07 20:53:00
5:53 PM,82.0,73.0,74,29.92,10.0,ENE,5.8,-,0.00,,Mostly Cloudy,70,2012-10-07 21:53:00
6:53 PM,82.0,68.0,62,29.93,10.0,East,5.8,-,N/A,,Overcast,100,2012-10-07 22:53:00
7:53 PM,82.0,73.9,76,29.95,10.0,East,5.8,-,0.00,Rain,Light Rain,100,2012-10-07 23:53:00
8:53 PM,79.0,73.9,84,29.96,10.0,Calm,Calm,-,0.00,Rain,Light Rain,0,2012-10-08 00:53:00
9:53 PM,78.1,75.0,90,29.97,10.0,Calm,Calm,-,0.00,,Mostly Cloudy,0,2012-10-08 01:53:00
10:53 PM,82.0,73.9,76,29.98,10.0,East,6.9,-,N/A,,Mostly Cloudy,90,2012-10-08 02:53:00
11:53 PM,81.0,73.9,79,29.96,10.0,East,4.6,-,N/A,,Mostly Cloudy,100,2012-10-08 03:53:00